Zurück zum Katalog

HINCUBE

AktivWissenschaftSSO
NORAD 39445·PAYLOAD·🇳🇴 Norway

Gestartet Nov 21, 2013 von Dombarovsky

Loading…

Nächste Überflüge (nächste 24 Stunden)

TLE

AktuellSource: Space-Track

Epoche: Sep 14, 2026, 08:27 UTC

1 39445U 13066AF  26257.35259826  .00004910  00000-0  30900-3 0  9992
2 39445  97.8072 227.3253 0030517 267.5387  92.2348 15.09301912692970

Verfolge HINCUBE in Echtzeit mit AllMySat

Download on the App Store